Weather History for Cahokia, IL

Change the Weather History Date:

Saturday, August 24, 2013

  Actual Average Record
Temperature  
Mean Temperature 76 °F -  
Max Temperature 91 °F 81 °F 98 °F (1948)
Min Temperature 62 °F 62 °F 57 °F (1952)
Cooling Degree Days 11    
Growing Degree Days 26 (Base 50)    
Moisture  
Dew Point 65 °F    
Average Humidity 73    
Maximum Humidity 100    
Minimum Humidity 42    
Precipitation  
Precipitation 0.00 in - - ()
Sea Level Pressure  
Sea Level Pressure 30.16 in    
Wind  
Wind Speed 2 mph (SE)    
Max Wind Speed 9 mph    
Max Gust Speed -    
Visibility 8 miles    
Events      
Averages and records for this station are not official NWS values.
T = Trace of Precipitation, MM = Missing Value Source: NWS Daily Summary

Daily Weather History Graph

Daily Weather History Graph

Search for Another Location

Airport:

Trip Planner

Search our weather history database for the weather conditions in past years. The results will help you decide how hot, cold, wet, or windy it might be!

Date:

Astronomy

Aug. 24, 2013 Rise Set
Actual Time 6:23 AM CDT 7:42 PM CDT
Civil Twilight 5:55 AM CDT 8:09 PM CDT
Nautical Twilight 5:22 AM CDT 8:42 PM CDT
Astronomical Twilight 4:47 AM CDT 9:17 PM CDT
Moon 9:40 PM CDT (8/24) 10:19 AM CDT (8/24)
Length of Visible Light 14h 14m
Length of Day
13h 19m
Waning Gibbous, 84% of the Moon is Illuminated
Aug 24
Waning Gibbous
Aug 28
Last Quarter
Sep 5
New
Sep 12
First Quarter
Sep 19
Full

Hourly Weather History & Observations

Time (CDT) Temp. Heat Index Dew Point Humidity Pressure Visibility Wind Dir Wind Speed Gust Speed Precip Events Conditions
12:53 AM 69.1 °F - 66.0 °F 90% 30.10 in 10.0 mi Calm Calm - N/A   Clear
1:53 AM 68.0 °F - 66.0 °F 93% 30.11 in 10.0 mi SE 3.5 mph - N/A   Clear
2:53 AM 66.9 °F - 64.0 °F 90% 30.12 in 10.0 mi SE 3.5 mph - N/A   Clear
3:53 AM 66.9 °F - 66.0 °F 97% 30.14 in 10.0 mi Calm Calm - N/A   Clear
4:53 AM 64.9 °F - 64.0 °F 97% 30.14 in 7.0 mi Calm Calm - N/A   Clear
5:15 AM 62.6 °F - 62.6 °F 100% 30.16 in 0.8 mi Calm Calm - N/A   Clear
5:29 AM 62.6 °F - 62.6 °F 100% 30.16 in 1.2 mi Calm Calm - N/A   Clear
5:39 AM 64.4 °F - 62.6 °F 94% 30.16 in 0.8 mi Calm Calm - N/A   Clear
5:53 AM 64.0 °F - 64.0 °F 100% 30.15 in 7.0 mi Calm Calm - N/A   Clear
6:53 AM 64.9 °F - 64.9 °F 100% 30.18 in 7.0 mi Calm Calm - N/A   Clear
7:53 AM 71.1 °F - 66.9 °F 87% 30.19 in 7.0 mi Calm Calm - N/A   Clear
8:53 AM 75.0 °F - 66.9 °F 76% 30.20 in 10.0 mi Calm Calm - N/A   Clear
9:53 AM 79.0 °F - 68.0 °F 69% 30.20 in 10.0 mi SE 4.6 mph - N/A   Clear
10:53 AM 82.0 °F 84.9 °F 68.0 °F 62% 30.21 in 10.0 mi SSE 6.9 mph - N/A   Clear
11:53 AM 84.9 °F 87.6 °F 66.9 °F 55% 30.20 in 10.0 mi East 6.9 mph - N/A   Clear
12:53 PM 87.1 °F 88.9 °F 64.9 °F 48% 30.19 in 10.0 mi SE 6.9 mph - N/A   Clear
1:53 PM 89.1 °F 90.3 °F 64.0 °F 43% 30.17 in 10.0 mi ESE 9.2 mph - N/A   Clear
2:53 PM 90.0 °F 91.3 °F 64.0 °F 42% 30.16 in 10.0 mi ESE 5.8 mph - N/A   Partly Cloudy
3:53 PM 90.0 °F 91.7 °F 64.9 °F 43% 30.15 in 10.0 mi SE 6.9 mph - N/A   Clear
4:53 PM 89.1 °F 91.0 °F 64.9 °F 45% 30.14 in 10.0 mi SE 6.9 mph - N/A   Partly Cloudy
5:53 PM 89.1 °F 90.3 °F 64.0 °F 43% 30.14 in 10.0 mi SE 4.6 mph - N/A   Clear
6:53 PM 86.0 °F 87.3 °F 64.0 °F 48% 30.14 in 10.0 mi ESE 5.8 mph - N/A   Clear
7:53 PM 78.1 °F - 64.9 °F 64% 30.15 in 10.0 mi ESE 3.5 mph - N/A   Clear
8:53 PM 77.0 °F - 66.0 °F 69% 30.16 in 10.0 mi SSE 4.6 mph - N/A   Clear
9:53 PM 73.9 °F - 64.9 °F 73% 30.18 in 10.0 mi SSE 3.5 mph - N/A   Clear
10:53 PM 71.1 °F - 64.0 °F 78% 30.19 in 10.0 mi SSE 3.5 mph - N/A   Clear
11:53 PM 71.1 °F - 64.0 °F 78% 30.19 in 10.0 mi SE 3.5 mph - N/A   Clear